STARLINK-1033

Last updated on Thu Dec 12 2019 00:02:03 GMT+0000 (Coordinated Universal Time)

1 44738U 19074AB 19345.25001157 -.00013631 00000-0 -92675-4 0 9999 2 44738 53.0093 23.2024 0002008 21.0083 287.9811 15.73235607 4688
UTC large
Height (km)
Speed (km/s)
/
Latitude / Longitude
Inclination (degrees)
Orbital Period (minutes)
Azimuth
Elevation
Range (km)
Doppler Factor

Next 0 passes for location: London (51.5072 / 0.1276)

Sorry there are no passes over London.